User: anonymous   Login
Location: Waldport
(44.4270°N, 124.0680°W)
Time: 18:17:30
(UTC-07:00)
Language:

Cosmos 1023 Rocket - Orbit

View from above orbital plane
View from above orbital plane
View from above satellite
View from above satellite

Ground track
Ground track

The orbit data is extracted from the following two-line orbital elements,

1 10962U 78063B   17149.47095566 +.00000069 +00000-0 +29559-4 0  9995
2 10962 074.0804 253.4657 0024793 163.2888 196.9090 14.41090697042995
Epoch (UTC): 29 May 2017 11:18:10
Eccentricity: 0.0024793
inclination: 74.0804°
perigee height: 737 km
apogee height: 772 km
right ascension of ascending node: 253.4657°
argument of perigee: 163.2888°
revolutions per day: 14.41090697
mean anomaly at epoch: 196.9090°
orbit number at epoch: 4299

The dashed part of the orbit path shows where the satellite is in the earth's shadow,  

DLR